Location: N�rnberg
(49.4489°N, 11.0797°E)
Time: 03:00:50
(UTC+01:00)

ISS - Pass Details

Date: 11 November 2017
Orbit: 402 x 407 km, 51.6° (Epoch: 23 November)

Event Time Altitude Azimuth Distance (km) Brightness Sun altitude
Exits shadow 05:09:39 54° 42° (NE) 497 -3.3 -21.2°
Drops below altitude 10° 05:12:30 10° 88° (E) 1,457 0.2 -20.8°
Sets 05:14:36 0° 92° (E) 2,315 1.6 -20.4°
